Погода Дзерджинское

Погода Дзерджинское : погода сейчас, прогноз погоды и архив. Всё, что Вы хотите узнать о погоде Дзерджинское!

Хотите узнать прогноз погоды Дзерджинское? Тогда Вам сюда: Погода Дзерджинское

Поиск расширенной информации на нашем сайте:

Полезная информация: К косметологу первый раз хабаровск и еще.

Другие новости

Новости СМИ2

Главная страница сайта

Новости сайта

02.10.2013

Напоминаем, что на нашем новом сайте вы можете получить высокодетализированные прогнозы погоды по пунктам России, СНГ и мира (включающие важные для авиации метеовеличины, такие как направление и скорость ветра, видимость, явления погоды, количество и форма облачности, нижняя и верхняя граница облачности), а также ознакомиться с разнообразными материалами по авиационной метеорологии и подборкой полезных ссылок на эту тему.

Сайт Метеоцентр.Азия посвящён разработке технологий оптимизации авиаметеорологического обслуживания, включая проектирование и перспективное создание нескольких автоматизированных авиаметеорологических систем:
- система выпуска высокодетальных прогностических карт явлений погоды для нижнего воздушного пространства по России и ближнему зарубежью;
- система верификации прогнозов TAF (выпускаемых синоптиками официальных АМСГ РФ и ближнего зарубежья) и AUTOTAF (выпускаемых сайтом Метеоцентр.Азия) - выявление ошибок, онлайн-сопоставление с фактической погодой METAR, автоматическое внесение коррективов в прогнозы при резком отклонении фактической погоды от прогноза, подсчёт оправдываемости прогнозов по элементам и в целом;
- система обработки, анализа и отображения авиаметеорологической информации для применения провайдерами метеорологической информации.

Рекомендуем: Ремонт husqvarna проблема с хускварной husqvarna.

Погода Дзерджинское - сегодня

Время (UTC), дата Ветер
(°,м/с) 
Видим.   Явления Облачность Т
(°С)
Тd
(°С)
f(%) Тe
(°С)
Pmin
(гПа)
dP
(гПа)
Po
(мм)
O2
(г/м3)
Тmin Tmax R s Состояние
почвы
18 20.04.17 270 (З) 20000 м    ясно 
-0.9 -6 68 -2  1017.9  0.6  746  302           
21 20.04.17 260 (З) 20000 м    3/0 верхняя 
[Ci fib]
-2.3 -6.6 72 -3  1018.5  0.4  746  304           
00 21.04.17 280 (З) 20000 м    8/5 600 м кучево-дожд., верхняя 
[Cb calv|Ci fib]
-0.6 -6 67 -2  1019  0.6  746  302  -2.9         
03 21.04.17 300 (СЗ) 3{10}  20000 м    6/6 600 м кучево-дожд. 
[Cb calv]
+1.9 -7.2 51 1018.7  -0.1  746  299           
06 21.04.17 280 (З) 20000 м    6/6 600 м кучево-дожд. 
[Cb calv]
+4.1 -9.7 36 +2  1018  -0.5  746  297           
09 21.04.17 340 (С) 20000 м    4/4 600 м кучево-дожд. 
[Cb calv]
+4.7 -10.1 33 +3  1018.4  0.4  746  297           
12 21.04.17 340 (С) 3{10}  20000 м    3/3 600 м кучево-дожд. 
[Cb calv]
+3.1 -10.8 35 +2  1020.1  1.6  748  299    +6.4       
15 21.04.17 310 (СЗ) 20000 м    ясно 
-1.9 -10.2 53 -1  1022.3  1.7  749  305           
18 21.04.17 320 (СЗ) 20000 м    ясно 
-5 -10 68 -5  1023.9  1.3  750  309           
21 21.04.17 310 (СЗ) 20000 м    ясно 
-6.4 -10.5 73 -8  1025.2  1.1  751  311           
00 22.04.17 330 (СЗ) 20000 м    ясно 
-5.8 -10 72 -7  1026.4  1.2  752  310  -8         
03 22.04.17 260 (З) 20000 м    ясно 
-1.6 -9.9 53 -3  1026.2  0.3  752  306           
06 22.04.17 270 (З) 20000 м    ясно 
+3 -10.3 37 +4  1024.9  -0.9  751  300           
09 22.04.17 240 (ЮЗ) 20000 м    ясно 
+5.8 -11.1 28 +7  1023.2  -1.5  750  297           
12 22.04.17 150 (ЮВ) 20000 м    1/0 верхняя 
[Ci fib]
+5.3 -10.8 30 +6  1022.3  -0.9  749  297    +6.9       
15 22.04.17 тихо ()   20000 м    ясно 
-2.1 -7.7 65 -2  1022.4  -0.5  749  305           
18 22.04.17 150 (ЮВ) 20000 м    ясно 
-4.6 -7.5 80 -4  1022.3  -0.3  749  308           
21 22.04.17 170 (Ю) 20000 м    ясно 
-6.3 -7.8 89 -6  1022.1  -0.4  748  309           
00 23.04.17 150 (ЮВ) 20000 м    ясно 
-1.3 -7.3 64 -1  1021.7  748  304  -6.6         
03 23.04.17 130 (ЮВ) 5{10}  20000 м    6/0 верхняя 
[Ci fib]
+7.7 -9 29 +6  1020.2  -0.7  748  294           
06 23.04.17 140 (ЮВ) 4{11}  20000 м    3/0 верхняя 
[Ci fib]
+11.6 -10.6 20 +11  1019.7  -0.2  748  290           
09 23.04.17 140 (ЮВ) 3{10}  20000 м    4/0 верхняя 
[Ci fib]
+13.4 -11.2 17 +13  1019.2  -0.3  748  288           
12 23.04.17 110 (В) 20000 м    3/0 верхняя 
[Ci fib]
+11.3 -11.4 19 +11  1019.8  0.4  748  290    +13.5       
15 23.04.17 140 (ЮВ) 20000 м    3/0 средняя 
[Ac lent]
+4.6 -11.3 30 +5  1021.8  1.4  749  298           
18 23.04.17 100 (В) 16  <0100 м    1/1 <0100 м 
-8   1023.1  0.8  749             
Время (UTC), дата Ветер
(°,м/с) 
Видим.   Явления Облачность Т
(°С)
Тd
(°С)
f(%) Тe
(°С)
Pmin
(гПа)
dP
(гПа)
Po
(мм)
O2
(г/м3)
Тmin Tmax R s Состояние
почвы

Для получения пояснительной информации подведите курсор к названию столбца.

ПОГОДА Дзерджинское - архив

Всё, что Вы хотите узнать о погоде Дзерджинское - удобно и подробно!

Выберите нужную дату (начиная с 1 января 2015* года) и нажмите кнопку "Найти".
Будут отображены архивные сводки погоды по пункту Дзерджинское, начиная с указанной даты.


Отображать данные в формате CSV (для использования в таблицах Excel)


Внимание! Наш архив погоды предназначен исключительно для личного некоммерческого использования в познавательных целях. Если Вам необходимы официальные справки о состоянии погоды (для производственных, юридических, коммерческих и т.п. целей), обращайтесь в органы Росгидромета.

*Примечание: данная дата относится к архиву по метеостанциям СССР (Россия, СНГ, Балтия).
Архив по метеостанциям Зарубежной Европы и Азии (кроме Китая) хранится 10 дней, по другим регионам земного шара (Китай, Африка, Америка, Австралия, Океания) - 1 день.

Дзерджинское - район местоположения метеостанции


Название, широта, долгота, высота метеостанции:
Дзерджинское 56.9°ш. 95.2°д. 188 м над ур. моря [Российская Федерация]

Дополнительная информация

В oтличие oт бoльшинства пoгoдных сайтoв мы публикуем пoдрoбную метеoинфoрмацию в детальнoм прoфессиoнальнoм фoрмате.

Характеристики температуры и влажнoсти вoздуха измеряются на высoте 2 м в тени вдали oт зданий и деревьев.
Скoрoсть ветра измеряется на высoте 10 м (на урoвне рoста челoвека скoрoсть ветра ниже в 1.5-2 раза). Если метеoстанция нахoдится в гoрoде или в лесу, тo скoрoсть ветра занижена на 2-4 м/с пo сравнению с oткрытым местoм. Скoрoсть ветра над акватoриями крупных рек и oзёр, а также на вершинах хoлмoв на 2-5 м/с выше, чем в oбычных услoвиях.
Атмoсфернoе давление в разных тoчках местнoсти мoжет значительнo oтличаться oт давления на метеoстанции, в зависимoсти oт услoвий рельефа (при пoдъёме на 10 м давление пoнижается примернo на 1 мм рт.ст.).